Hourly Weather Roundup
Issued by NWS Central Illinois

Home | Current Version | Previous Version | Graphics & Text | Print | Product List | Glossary On
Versions: 1 2 3 4 5 6 7 8 9 10 11 12 13 14 15 16 17 18 19 20 21 22 23 24 25 26 27 28 29 30 31 32 33 34 35 36 37 38 39 40 41 42 43 44 45 46 47 48 49 50
480
NZUS43 KILX 251110
HWRILX

Area Weather Roundup
National Weather Service Lincoln IL
600 AM CDT WED APR 25 2018

NOTE:  "FAIR" indicates few or no clouds below 12,000 feet, with
       no sigificant weather and/or obstructions to visibility.


CITY           SKY/WX    TMP DP  RH WIND       PRES   REMARKS
Bloomington    FAIR      45  43  93 N12       30.05R
Champaign      FAIR      46  45  96 N12       30.03R FOG
Danville       CLOUDY    45  45 100 N13       29.99R FOG
Decatur        FAIR      46  46 100 NE12      30.02R FOG
Effingham      FAIR      49  49 100 N3        30.02R FOG
Flora          FAIR      50  49  97 N5        30.00R FOG
Galesburg      FAIR      48  38  66 NE16      30.09R
Jacksonville   CLOUDY    47  39  75 NW8       30.02R
Lacon          FAIR      44  32  61 NE8       30.08R
Lawrenceville  FAIR      47  47 100 MISG      30.00R FOG
Litchfield     PTCLDY    44  44 100 NW7       30.00R
$$


CITY           SKY/WX    TMP DP  RH WIND       PRES   REMARKS
Lincoln        FAIR      49  48  98 NE12      30.03R FOG
Macomb         CLOUDY    49  44  84 NE10      30.08R
Mattoon        FAIR      45  45 100 N8        30.00R FOG
Mt Carmel AP   FOG       43  43  98 NW3       30.00R VSB 3/4
Olney-Noble AP   N/A     47  45  93 N5        30.00S FOG
Paris AP       FAIR      46  46  99 N6        30.02R FOG
Peoria         FAIR      48  39  71 NE16      30.06R
Pontiac        CLOUDY    45  38  77 N12       30.07R
Rantoul        FAIR      47  45  93 N14       30.02R
Robinson       FAIR      46  46 100 NW6       30.01R FOG
Springfield    FAIR      51  49  92 E13       30.02R FOG
Taylorville    FAIR      48  48  99 NE14      30.02R FOG
$$

...REGIONAL REPORTS...


CITY           SKY/WX    TMP DP  RH WIND       PRES   REMARKS
Chicago O`Hare MOCLDY    43  31  62 N16       30.08R
Kankakee       FAIR      43  34  70 N9        30.06R
La Salle       FAIR      46  34  61 NE15      30.09R
Moline         CLOUDY    50  33  52 NE14      30.10R
Mount Sterling PTCLDY    50  41  71 NW9       30.03R
Mount Vernon   FAIR      42  42 100 CALM      29.98F FOG
Pittsfield     MOCLDY    53  43  67 NW9       30.04R
Quincy         PTCLDY    52  39  61 N12       30.04R
Rockford       FAIR      42  32  67 NE10      30.13R
$$


CITY           SKY/WX    TMP DP  RH WIND       PRES   REMARKS
Burlington     MOCLDY    51  39  63 NE17      30.07R
Cedar Rapids   FAIR      46  36  68 N14       30.11R
Des Moines     CLOUDY    49  37  63 N8        30.16S
Kirksville     CLOUDY    52  38  58 N10       30.11R
Ottumwa        CLOUDY    45  36  70 N10       30.11F
St Louis       MOCLDY    51  39  63 W5        30.01R
$$


CITY           SKY/WX    TMP DP  RH WIND       PRES   REMARKS
Terre Haute    FAIR      48  47  96 NW7       30.00R FOG
Evansville     FAIR      48  48 100 W3        30.00R FOG
Indianapolis   CLOUDY    50  49  96 N8        29.95R FOG
Lafayette      CLOUDY    45  45 100 NW12      30.00R FOG
Madison        FAIR      38  31  76 N6        30.14R WCI  33
Milwaukee      FAIR      40  34  79 N9        30.12R WCI  34
$$






USA.gov is the U.S. government's official web portal to all federal, state and local government web resources and services.